[[{"header":{"parameterUnit":"m.s-1","parameterCategory":1,"la1":30.2991,"la2":30.254,"lo1":-89.0895,"lo2":-89.0444,"dy":0.0017,"dx":0.0017,"nx":28,"ny":28,"refTime":"2024-04-06T21:00:00:Z","depth":0,"parameterNumber":2,"parameterNumberName":"U-component_of_WINDS"},"data":[0,0,0,0,0,0,0,0,0,0,0,0,0,0,0,0,0,0,0,0,0,0,0,0,0,0,0,0,0,0,0,0,0,0,0,0,0,0,0,0,0,0,0,0,0,0,0,0,0,0,0,0,0,0,0,0,0,0,-4.1945,-4.1945,0,-4.1992,-4.1992,-4.1993,-4.1948,-4.1946,-4.1944,-4.1942,-4.1988,-4.199,-4.1993,0,0,0,0,0,0,0,0,0,0,0,0,0,-4.1815,-4.1817,-4.1945,-4.1945,-4.1946,-4.1992,-4.1992,-4.1993,-4.1948,-4.1946,-4.1944,-4.1942,-4.1987,-4.199,-4.1993,0,0,0,0,0,0,0,0,0,0,0,0,0,-4.1867,-4.1818,-4.1945,-4.1929,-4.1928,-4.1991,-4.1992,-4.1993,-4.1948,-4.1946,-4.1943,-4.1941,-4.1985,-4.199,-4.1994,-4.2074,0,0,-4.2007,-4.2009,0,0,0,0,0,0,0,0,-4.1864,-4.1872,-4.1931,-4.193,-4.1929,-4.1961,-4.1963,-4.202,-4.1949,-4.1941,-4.1942,-4.1939,-4.1981,-4.1985,-4.2,-4.2076,-4.2078,-4.2007,-4.201,-4.2012,-4.2013,0,0,0,0,0,0,0,-4.1861,-4.187,-4.1963,-4.1932,-4.1931,-4.1919,-4.1924,-4.1973,-4.1975,-4.1941,-4.1938,-4.1944,-4.198,-4.1996,-4.2001,-4.2079,-4.2007,-4.2011,-4.2014,-4.2015,-4.2222,-4.2225,0,0,0,0,0,0,-4.1859,-4.1867,-4.1962,-4.1965,-4.189,-4.1924,-4.1929,-4.1954,-4.1974,-4.1975,-4.1947,-4.1942,-4.199,-4.1996,-4.2002,-4.2096,-4.2012,-4.2016,-4.2018,-4.222,-4.2223,-4.2226,0,0,0,0,0,0,-4.1857,-4.1868,-4.196,-4.1915,-4.1926,-4.1929,-4.1957,-4.1956,-4.1972,-4.1979,-4.1978,-4.1963,-4.1988,-4.1996,-4.2056,-4.2097,-4.2018,-4.2022,-4.2216,-4.2221,-4.2225,-4.2285,0,0,0,0,0,0,-4.1853,-4.1867,-4.1898,-4.1916,-4.1929,-4.2014,-4.196,-4.1959,-4.198,-4.1974,-4.1994,-4.1994,-4.1986,-4.205,-4.2061,-4.2101,-4.2025,-4.2212,-4.2218,-4.2223,-4.228,-4.2291,-4.2301,0,0,0,0,0,-4.1849,-4.1913,-4.19,-4.1912,-4.1967,-4.2017,-4.2024,-4.2014,-4.1983,-4.2014,-4.2018,-4.1993,-4.2092,-4.2057,-4.2068,-4.2111,-4.221,-4.2216,-4.2223,-4.2275,-4.2289,-4.2301,0,0,0,0,0,0,-4.1898,-4.1915,-4.1901,-4.1973,-4.1994,-4.2009,-4.2047,-4.2029,-4.2059,-4.2052,-4.2039,-4.2043,-4.2107,-4.2115,-4.2077,-4.2189,-4.2145,-4.2155,-4.2181,-4.2195,-4.2205,-4.2201,-4.2029,0,0,0,0,0,-4.1918,-4.1957,-4.197,-4.2032,-4.2044,-4.2044,-4.2065,-4.2056,-4.2077,-4.2085,-4.2094,-4.2114,-4.215,-4.2173,-4.2206,-4.2282,-4.2284,-4.2317,-4.2327,-4.2336,-4.2343,-4.2383,-4.2397,-4.2248,-4.2248,-4.2248,0,0,-4.1958,-4.1972,-4.1998,-4.2042,-4.2058,-4.2098,-4.2051,-4.2096,-4.2126,-4.2092,-4.2149,-4.2157,-4.2179,-4.2247,-4.2277,-4.2256,-4.2386,-4.2345,-4.2352,-4.2354,-4.2391,-4.2405,-4.2418,-4.2252,-4.2251,-4.2251,0,0,-4.2051,-4.2067,-4.212,-4.2137,-4.2161,-4.2161,-4.2174,-4.2193,-4.2196,-4.2254,-4.223,-4.2265,-4.2326,-4.2342,-4.2359,-4.2461,-4.2439,-4.2472,-4.2527,-4.2566,-4.2578,-4.2588,-4.2622,-4.2635,-4.248,-4.248,-4.248,0,-4.2098,-4.2158,-4.215,-4.2196,-4.2216,-4.219,-4.2243,-4.2259,-4.2293,-4.2307,-4.2283,-4.2359,-4.2372,-4.2443,-4.2468,-4.2483,-4.2497,-4.2468,-4.2577,-4.2587,-4.2597,-4.2629,-4.2643,-4.2484,-4.2483,-4.2483,-4.2483,0,-4.2214,-4.2256,-4.2297,-4.233,-4.2355,-4.2405,-4.2403,-4.243,-4.242,-4.2422,-4.2481,-4.2496,-4.2532,-4.2549,-4.2539,-4.2619,-4.2604,-4.2579,-4.2534,-4.2615,-4.2645,-4.2658,-4.2489,-4.2488,-4.2487,-4.2486,0,0,-4.2337,-4.2367,-4.2381,-4.2396,-4.2422,-4.2454,-4.2503,-4.2539,-4.2561,-4.2586,-4.2625,-4.2679,-4.2656,-4.2675,-4.2667,-4.2701,-4.2779,-4.2671,-4.2672,-4.2689,-4.2867,-4.2884,-4.2898,-4.2766,-4.2769,-4.277,-4.2864,0,-4.2429,-4.2515,-4.2509,-4.2589,-4.2628,-4.2604,-4.2646,-4.2666,-4.267,-4.2703,-4.2708,-4.2745,-4.2713,-4.2724,-4.2758,-4.2763,-4.2814,-4.2756,-4.2801,-4.2803,-4.2793,-4.2915,-4.2933,-4.302,-4.2876,-4.2878,-4.288,0,-4.2548,-4.2578,-4.2662,-4.2682,-4.2698,-4.2736,-4.2769,-4.2801,-4.2823,-4.2824,-4.2846,-4.2833,-4.2881,-4.2838,-4.2904,-4.2865,-4.2883,-4.2889,-4.2892,-4.2893,-4.2844,-4.2917,-4.3048,-4.306,-4.2899,-4.2897,-4.2896,0,-4.2627,-4.2688,-4.2746,-4.276,-4.2786,-4.2813,-4.2825,-4.2845,-4.2867,-4.2895,-4.2909,-4.2943,-4.296,-4.2986,-4.2982,-4.2951,-4.3049,-4.3005,-4.3049,-4.3049,-4.3068,-4.3067,-4.3202,-4.3085,-4.3085,-4.3085,-4.3084,0,-4.273,-4.2781,-4.2782,-4.2818,-4.2875,-4.2868,-4.2925,-4.2934,-4.2952,-4.2988,-4.297,-4.3004,-4.2998,-4.3032,-4.3029,-4.3083,-4.3092,-4.3093,-4.3091,-4.3093,-4.3093,-4.3103,-4.3095,-4.3088,-4.3087,-4.3087,-4.3086,0,-4.2826,-4.2829,-4.289,-4.291,-4.2916,-4.2958,-4.2974,-4.3007,-4.3011,-4.3057,-4.3067,-4.3073,-4.3112,-4.3111,-4.3156,-4.3154,-4.322,-4.3212,-4.3212,-4.321,-4.3253,-4.3248,-4.3397,-4.3415,-4.3289,-4.329,-4.3291,0,-4.289,-4.2929,-4.2954,-4.2977,-4.2991,-4.3029,-4.3052,-4.3047,-4.3071,-4.3101,-4.313,-4.3168,-4.3198,-4.3261,-4.3268,-4.3302,-4.3294,-4.3344,-4.3298,-4.3299,-4.3292,-4.3288,-4.3292,-4.3352,-4.3353,-4.3354,-4.3355,0,-4.3002,-4.3002,-4.3036,-4.3071,-4.3098,-4.3125,-4.315,-4.317,-4.3169,-4.3197,-4.3237,-4.326,-4.3306,-4.3343,-4.3376,-4.3387,-4.3371,-4.337,-4.3381,-4.3382,-4.338,-4.338,-4.3234,-4.3366,-4.3365,-4.3364,-4.3363,-4.3363,-4.3083,-4.3116,-4.3139,-4.3177,-4.3196,-4.322,-4.3252,-4.3261,-4.3295,-4.3332,-4.3328,-4.3372,-4.3394,-4.3437,-4.3451,-4.3485,-4.3467,-4.3485,-4.3489,-4.3492,-4.3496,-4.3377,-4.3492,-4.3491,-4.3491,-4.3491,-4.3491,0,-4.3192,-4.3206,-4.3242,-4.3277,-4.3308,-4.3292,-4.3319,-4.3344,-4.3384,-4.3407,-4.3437,-4.3483,-4.3519,-4.3531,-4.3566,-4.3591,-4.3584,-4.36,-4.3596,-4.3599,-4.3511,-4.3496,-4.3605,-4.3605,-4.3605,-4.3605,-4.3605,-4.3605,-4.3253,-4.3309,-4.3311,-4.3376,-4.339,-4.3434,-4.3451,-4.3472,-4.349,-4.3543,-4.3573,-4.3581,-4.3599,-4.3635,-4.3668,-4.367,-4.3682,-4.3701,-4.37,-4.3617,-4.3605,-4.3594,-4.358,-4.3705,-4.3705,-4.3785,-4.3786,-4.3786]},{"header":{"parameterUnit":"m.s-1","parameterCategory":1,"la1":30.2991,"la2":30.254,"lo1":-89.0895,"lo2":-89.0444,"dy":0.0017,"dx":0.0017,"nx":28,"ny":28,"refTime":"2024-04-06T21:00:00:Z","depth":0,"parameterNumber":3,"parameterNumberName":"V-component_of_WINDS"},"data":[0,0,0,0,0,0,0,0,0,0,0,0,0,0,0,0,0,0,0,0,0,0,0,0,0,0,0,0,0,0,0,0,0,0,0,0,0,0,0,0,0,0,0,0,0,0,0,0,0,0,0,0,0,0,0,0,0,0,1.8861,1.8861,0,1.8895,1.8895,1.8896,1.8936,1.8937,1.8937,1.8938,1.8971,1.8972,1.8972,0,0,0,0,0,0,0,0,0,0,0,0,0,1.8832,1.8832,1.8861,1.8862,1.8862,1.8895,1.8895,1.8896,1.8936,1.8937,1.8937,1.8938,1.8971,1.8972,1.8972,0,0,0,0,0,0,0,0,0,0,0,0,0,1.8853,1.8833,1.8861,1.8886,1.8889,1.8895,1.8895,1.8896,1.8936,1.8937,1.8938,1.8938,1.8971,1.8972,1.8972,1.8956,0,0,1.8973,1.8974,0,0,0,0,0,0,0,0,1.8852,1.8854,1.8882,1.8884,1.8887,1.8912,1.8897,1.8916,1.8935,1.8918,1.8938,1.8939,1.8951,1.8953,1.8957,1.8958,1.8959,1.8973,1.8974,1.8974,1.8974,0,0,0,0,0,0,0,1.885,1.8853,1.8874,1.8882,1.8885,1.8896,1.89,1.8901,1.8929,1.8919,1.8922,1.8926,1.8952,1.8957,1.8958,1.8959,1.8973,1.8974,1.8974,1.8974,1.895,1.8949,0,0,0,0,0,0,1.8845,1.8851,1.8873,1.8875,1.8871,1.8895,1.89,1.8903,1.8929,1.8933,1.8925,1.8928,1.8955,1.8958,1.896,1.8944,1.8974,1.8974,1.8975,1.8951,1.895,1.8949,0,0,0,0,0,0,1.8844,1.8847,1.8872,1.8864,1.8868,1.8895,1.8898,1.8903,1.8908,1.8933,1.8938,1.8924,1.8956,1.8959,1.8957,1.8945,1.8975,1.8975,1.8952,1.8951,1.895,1.8911,0,0,0,0,0,0,1.8843,1.8846,1.884,1.8864,1.8869,1.8868,1.8897,1.8903,1.8908,1.8912,1.8934,1.8938,1.8957,1.8956,1.8958,1.8946,1.8975,1.8953,1.8952,1.895,1.8913,1.8908,1.8904,0,0,0,0,0,1.8842,1.8827,1.884,1.8842,1.8861,1.8868,1.887,1.8893,1.8907,1.8902,1.8918,1.8937,1.8946,1.8956,1.8957,1.8946,1.8954,1.8952,1.895,1.8915,1.8909,1.8904,0,0,0,0,0,0,1.88,1.8831,1.8845,1.8837,1.885,1.8874,1.8868,1.8886,1.8894,1.8897,1.8925,1.8929,1.8924,1.8935,1.8945,1.8933,1.8953,1.8952,1.8926,1.892,1.8916,1.8913,1.8976,0,0,0,0,0,1.8791,1.8793,1.8819,1.881,1.8816,1.8841,1.8844,1.8861,1.8875,1.888,1.8897,1.8909,1.8916,1.8919,1.8925,1.8915,1.8921,1.8909,1.8904,1.89,1.8898,1.8895,1.889,1.8942,1.8942,1.8942,0,0,1.877,1.8787,1.8786,1.8802,1.8814,1.8816,1.8845,1.8846,1.8848,1.888,1.888,1.8892,1.8909,1.8903,1.8901,1.8912,1.8885,1.8897,1.8894,1.8894,1.8892,1.8887,1.8883,1.8941,1.8941,1.8941,0,0,1.8733,1.8746,1.874,1.8751,1.8769,1.8786,1.8785,1.8808,1.8818,1.8818,1.8843,1.8846,1.8855,1.8866,1.8873,1.8843,1.8861,1.8844,1.882,1.8816,1.8812,1.8808,1.8798,1.8794,1.8842,1.8842,1.8842,0,1.8704,1.8709,1.8734,1.8734,1.8741,1.8772,1.8766,1.8776,1.8795,1.8799,1.8811,1.8825,1.8838,1.8836,1.8828,1.8833,1.8833,1.8841,1.8811,1.8807,1.8804,1.8795,1.8791,1.884,1.884,1.884,1.884,0,1.8674,1.8677,1.867,1.8688,1.8694,1.8691,1.8717,1.872,1.8737,1.8753,1.8753,1.877,1.8782,1.8783,1.8798,1.8783,1.8789,1.8805,1.8826,1.8797,1.8789,1.8785,1.8837,1.8838,1.8838,1.8839,0,0,1.861,1.8644,1.8641,1.8651,1.8673,1.8676,1.8676,1.8687,1.869,1.8702,1.8703,1.8711,1.8727,1.8735,1.8752,1.8749,1.8725,1.8766,1.8767,1.8758,1.8711,1.8698,1.8694,1.8738,1.8737,1.8737,1.8709,0,1.8578,1.8578,1.8602,1.8596,1.86,1.863,1.8629,1.8643,1.8659,1.8664,1.8681,1.8687,1.8707,1.8712,1.8711,1.8728,1.8716,1.8731,1.8739,1.8739,1.8733,1.8689,1.8676,1.8649,1.8706,1.8706,1.8705,0,1.8539,1.8551,1.8545,1.857,1.8572,1.8571,1.8585,1.859,1.8607,1.8619,1.8628,1.8649,1.865,1.867,1.8673,1.8683,1.8688,1.8697,1.8697,1.8698,1.872,1.8689,1.8641,1.8637,1.87,1.8701,1.8701,0,1.8494,1.8508,1.8507,1.8514,1.8543,1.8541,1.8553,1.8572,1.8578,1.859,1.8594,1.8606,1.8612,1.8621,1.8645,1.8657,1.8646,1.8667,1.8656,1.8655,1.8651,1.8651,1.8603,1.8654,1.8654,1.8654,1.8655,0,1.8455,1.8451,1.8487,1.8486,1.8483,1.8511,1.8507,1.8521,1.8538,1.8541,1.8568,1.857,1.8601,1.8607,1.8625,1.8626,1.8628,1.8638,1.8643,1.8635,1.8634,1.8639,1.8641,1.8653,1.8654,1.8654,1.8654,0,1.8404,1.8428,1.8429,1.8456,1.8463,1.8459,1.8483,1.8484,1.8502,1.8506,1.8508,1.8536,1.8545,1.8569,1.8584,1.8596,1.8592,1.8601,1.8586,1.8589,1.8576,1.8577,1.8529,1.8524,1.8578,1.8578,1.8577,0,1.8377,1.8375,1.8403,1.8407,1.8418,1.8424,1.8431,1.8459,1.8465,1.8486,1.8484,1.8495,1.8505,1.8518,1.854,1.8552,1.8561,1.8544,1.8563,1.8556,1.8562,1.8561,1.8562,1.8539,1.8538,1.8538,1.8537,0,1.8328,1.834,1.8349,1.8363,1.837,1.8382,1.8396,1.8398,1.8429,1.8435,1.8444,1.8453,1.8469,1.8479,1.8495,1.8508,1.8528,1.8531,1.8529,1.8522,1.8513,1.8518,1.8574,1.8532,1.8533,1.8533,1.8533,1.8534,1.8288,1.8288,1.8308,1.8317,1.8331,1.8343,1.8346,1.8364,1.8373,1.8388,1.8405,1.8413,1.8432,1.8455,1.8466,1.8474,1.8484,1.8481,1.848,1.8479,1.8476,1.8512,1.8477,1.8477,1.8477,1.8477,1.8477,0,1.8241,1.8255,1.8264,1.8282,1.829,1.8309,1.8326,1.8331,1.8338,1.8354,1.8364,1.8376,1.8387,1.841,1.8424,1.8425,1.8435,1.8428,1.8428,1.8431,1.8465,1.8466,1.842,1.842,1.842,1.842,1.842,1.842,1.8217,1.8218,1.8233,1.8241,1.8256,1.8264,1.8272,1.8284,1.8297,1.831,1.8319,1.8335,1.8354,1.837,1.8381,1.8388,1.8392,1.8381,1.8391,1.8423,1.8428,1.8433,1.8434,1.8382,1.8382,1.8356,1.8356,1.8356]}]]